Location: Proctor
(47.8934°N, 114.3048°W)
Time: 05:51:55
(UTC+00:00)

ISS - Pass Details

Date: 22 May 2024
Orbit: 409 x 421 km, 51.6° (Epoch: 13 June)

Event Time Altitude Azimuth Distance (km) Brightness Sun altitude
Rises 04:01:36 0° 288° (WNW) 2,378 1.5 -6.8°
Reaches altitude 10° 04:03:46 10° 294° (WNW) 1,510 0.5 -7.0°
Maximum altitude 04:07:04 49° 11° (N) 553 -2.9 -7.4°
Drops below altitude 10° 04:10:21 10° 88° (E) 1,499 -1.4 -7.9°
Enters shadow 04:11:23 - 91° (E) 1,912 -0.9 -8.0°
